Zurück zum Katalog

STARLINK-36334

AktivKommunikationVLEO
NORAD 67471·PAYLOAD·🇺🇸 United States

Gestartet Jan 14, 2026 von Cape Canaveral Space Force Station

Loading…

Nächste Überflüge (nächste 24 Stunden)

TLE

AktuellSource: CelesTrak SupGP

Epoche: Sep 15, 2026, 03:34 UTC

1 67471C 26008AC  26258.14909722 -.00049305  00000+0 -17861-2 0  2583
2 67471  43.0012 215.6439 0001342 271.1484  64.8755 15.27597234    15

Verfolge STARLINK-36334 in Echtzeit mit AllMySat

Download on the App Store